• In Belgien
  • Länderverzeichnis
  • Für 7 Tage
  • Wassertemperatur
  • Satellitenkarten
  • Wetterkarte
  • Widgets
  • user-avatar
    Anmelden

    Stündliche Wetter Polotsk

    Heute, 18 August, Samstag

    Zeit Temperatur Niederschläge Wind Luftdruck Luftfeuchtigkeit
    00:00 +16°C° 0 mm 2 m/S 751 mmHg 94%
    01:00 +16°C° 0 mm 2 m/S 751 mmHg 95%
    02:00 +16°C° 0 mm 2 m/S 751 mmHg 95%
    03:00 +16°C° 0 mm 2 m/S 751 mmHg 96%
    04:00 +15°C° 0 mm 2 m/S 751 mmHg 96%
    05:00 +15°C° 0 mm 2 m/S 751 mmHg 96%
    06:00 +17°C° 0 mm 2 m/S 751 mmHg 91%
    07:00 +18°C° 0 mm 2 m/S 751 mmHg 86%
    08:00 +20°C° 0 mm 2 m/S 751 mmHg 80%
    09:00 +21°C° 0,2 mm 2 m/S 751 mmHg 77%
    10:00 +24°C° 0,2 mm 2 m/S 751 mmHg 73%
    11:00 +25°C° 0,2 mm 3 m/S 751 mmHg 69%
    12:00 +25°C° 0,7 mm 3 m/S 751 mmHg 69%
    13:00 +26°C° 0,7 mm 3 m/S 750 mmHg 69%
    14:00 +26°C° 0,7 mm 3 m/S 750 mmHg 69%
    15:00 +25°C° 0,5 mm 3 m/S 750 mmHg 74%
    16:00 +24°C° 0,5 mm 3 m/S 750 mmHg 79%
    17:00 +22°C° 0,5 mm 3 m/S 750 mmHg 85%
    18:00 +21°C° 0,1 mm 2 m/S 750 mmHg 88%
    19:00 +20°C° 0,1 mm 2 m/S 750 mmHg 91%
    20:00 +19°C° 0,1 mm 2 m/S 750 mmHg 94%
    21:00 +19°C° 0 mm 2 m/S 749 mmHg 94%
    22:00 +18°C° 0 mm 2 m/S 749 mmHg 95%
    23:00 +18°C° 0 mm 2 m/S 749 mmHg 95%

    Morgen, 19 August, Sonntag

    Zeit Temperatur Niederschläge Wind Luftdruck Luftfeuchtigkeit
    00:00 +18°C° 0 mm 2 m/S 749 mmHg 95%
    01:00 +18°C° 0 mm 2 m/S 749 mmHg 96%
    02:00 +17°C° 0 mm 2 m/S 749 mmHg 96%
    03:00 +17°C° 0 mm 2 m/S 749 mmHg 96%
    04:00 +17°C° 0 mm 2 m/S 749 mmHg 96%
    05:00 +17°C° 0 mm 2 m/S 749 mmHg 96%
    06:00 +18°C° 0 mm 2 m/S 750 mmHg 93%
    07:00 +19°C° 0 mm 2 m/S 750 mmHg 90%
    08:00 +20°C° 0 mm 2 m/S 750 mmHg 87%
    09:00 +21°C° 0 mm 2 m/S 750 mmHg 81%
    10:00 +22°C° 0 mm 3 m/S 750 mmHg 76%
    11:00 +24°C° 0 mm 3 m/S 750 mmHg 70%
    12:00 +25°C° 0 mm 4 m/S 749 mmHg 64%
    13:00 +25°C° 0 mm 4 m/S 749 mmHg 58%
    14:00 +25°C° 0 mm 4 m/S 749 mmHg 51%
    15:00 +25°C° 0 mm 4 m/S 749 mmHg 53%
    16:00 +25°C° 0 mm 3 m/S 749 mmHg 55%
    17:00 +24°C° 0 mm 3 m/S 749 mmHg 56%
    18:00 +21°C° 0 mm 3 m/S 749 mmHg 64%
    19:00 +20°C° 0 mm 2 m/S 749 mmHg 72%
    20:00 +18°C° 0 mm 2 m/S 749 mmHg 81%
    21:00 +18°C° 0 mm 2 m/S 749 mmHg 84%
    22:00 +17°C° 0 mm 2 m/S 749 mmHg 88%
    23:00 +17°C° 0 mm 2 m/S 749 mmHg 92%

    übermorgen, 20 August, Montag

    Zeit Temperatur Niederschläge Wind Luftdruck Luftfeuchtigkeit
    00:00 +17°C° 0 mm 2 m/S 749 mmHg 93%
    01:00 +16°C° 0 mm 2 m/S 749 mmHg 94%
    02:00 +16°C° 0 mm 2 m/S 749 mmHg 95%
    03:00 +16°C° 0 mm 2 m/S 749 mmHg 96%
    04:00 +15°C° 0 mm 2 m/S 749 mmHg 96%
    05:00 +15°C° 0 mm 2 m/S 749 mmHg 96%
    06:00 +16°C° 0 mm 2 m/S 749 mmHg 91%
    07:00 +18°C° 0 mm 3 m/S 749 mmHg 86%
    08:00 +19°C° 0 mm 3 m/S 749 mmHg 81%
    09:00 +20°C° 0 mm 3 m/S 749 mmHg 76%
    10:00 +22°C° 0 mm 3 m/S 749 mmHg 71%
    11:00 +24°C° 0 mm 3 m/S 748 mmHg 66%
    12:00 +25°C° 0 mm 3 m/S 748 mmHg 63%
    13:00 +25°C° 0 mm 4 m/S 748 mmHg 61%
    14:00 +26°C° 0 mm 4 m/S 748 mmHg 59%
    15:00 +26°C° 0,2 mm 3 m/S 747 mmHg 63%
    16:00 +25°C° 0,2 mm 3 m/S 747 mmHg 66%
    17:00 +25°C° 0,2 mm 3 m/S 746 mmHg 70%
    18:00 +22°C° 0,2 mm 3 m/S 746 mmHg 76%
    19:00 +21°C° 0,2 mm 2 m/S 746 mmHg 82%
    20:00 +19°C° 0,2 mm 2 m/S 746 mmHg 88%
    21:00 +19°C° 0 mm 3 m/S 746 mmHg 88%
    22:00 +19°C° 0 mm 3 m/S 745 mmHg 89%
    23:00 +18°C° 0 mm 3 m/S 745 mmHg 90%

    21 August, Dienstag

    Zeit Temperatur Niederschläge Wind Luftdruck Luftfeuchtigkeit
    00:00 +18°C° 0 mm 4 m/S 745 mmHg 89%
    01:00 +18°C° 0 mm 4 m/S 744 mmHg 88%
    02:00 +18°C° 0 mm 4 m/S 744 mmHg 88%
    03:00 +18°C° 0,2 mm 4 m/S 743 mmHg 88%
    04:00 +17°C° 0,2 mm 5 m/S 743 mmHg 88%
    05:00 +17°C° 0,2 mm 5 m/S 742 mmHg 88%
    06:00 +19°C° 0,2 mm 5 m/S 742 mmHg 87%
    07:00 +19°C° 0,2 mm 5 m/S 742 mmHg 86%
    08:00 +20°C° 0,2 mm 5 m/S 742 mmHg 85%
    09:00 +20°C° 0,5 mm 6 m/S 742 mmHg 85%
    10:00 +20°C° 0,5 mm 6 m/S 742 mmHg 84%
    11:00 +20°C° 0,5 mm 6 m/S 742 mmHg 83%
    12:00 +21°C° 0,2 mm 6 m/S 743 mmHg 76%
    13:00 +21°C° 0,2 mm 6 m/S 743 mmHg 70%
    14:00 +21°C° 0,2 mm 6 m/S 743 mmHg 63%
    15:00 +21°C° 0 mm 6 m/S 744 mmHg 60%
    16:00 +21°C° 0 mm 6 m/S 744 mmHg 58%
    17:00 +21°C° 0 mm 5 m/S 745 mmHg 56%
    18:00 +19°C° 0 mm 5 m/S 745 mmHg 59%
    19:00 +18°C° 0 mm 4 m/S 746 mmHg 62%
    20:00 +15°C° 0 mm 4 m/S 747 mmHg 65%
    21:00 +14°C° 0 mm 4 m/S 747 mmHg 68%
    22:00 +13°C° 0 mm 4 m/S 748 mmHg 71%
    23:00 +12°C° 0 mm 3 m/S 748 mmHg 73%

    22 August, Mittwoch

    Zeit Temperatur Niederschläge Wind Luftdruck Luftfeuchtigkeit
    00:00 +12°C° 0 mm 3 m/S 749 mmHg 78%
    01:00 +11°C° 0 mm 3 m/S 749 mmHg 82%
    02:00 +10°C° 0 mm 3 m/S 749 mmHg 86%
    03:00 +10°C° 0 mm 3 m/S 750 mmHg 89%
    04:00 +9°C° 0 mm 3 m/S 750 mmHg 91%
    05:00 +9°C° 0 mm 3 m/S 751 mmHg 93%
    06:00 +10°C° 0 mm 3 m/S 751 mmHg 86%
    07:00 +12°C° 0 mm 4 m/S 751 mmHg 79%
    08:00 +13°C° 0 mm 4 m/S 752 mmHg 72%
    09:00 +15°C° 0 mm 4 m/S 752 mmHg 66%
    10:00 +17°C° 0 mm 4 m/S 752 mmHg 61%
    11:00 +18°C° 0 mm 4 m/S 752 mmHg 55%
    12:00 +19°C° 0 mm 4 m/S 752 mmHg 53%
    13:00 +20°C° 0 mm 3 m/S 752 mmHg 50%
    14:00 +20°C° 0 mm 3 m/S 752 mmHg 47%
    15:00 +20°C° 0 mm 3 m/S 752 mmHg 49%
    16:00 +20°C° 0 mm 3 m/S 752 mmHg 50%
    17:00 +20°C° 0 mm 2 m/S 752 mmHg 51%
    18:00 +18°C° 0 mm 2 m/S 752 mmHg 57%
    19:00 +16°C° 0 mm 2 m/S 752 mmHg 63%
    20:00 +14°C° 0 mm 1 m/S 753 mmHg 69%
    21:00 +14°C° 0 mm 1 m/S 753 mmHg 71%
    22:00 +13°C° 0 mm 1 m/S 753 mmHg 73%
    23:00 +13°C° 0 mm 2 m/S 753 mmHg 75%

    23 August, Donnerstag

    Zeit Temperatur Niederschläge Wind Luftdruck Luftfeuchtigkeit
    00:00 +12°C° 0 mm 2 m/S 753 mmHg 76%
    01:00 +12°C° 0 mm 2 m/S 753 mmHg 78%
    02:00 +12°C° 0 mm 2 m/S 752 mmHg 79%
    03:00 +10°C° 0 mm 2 m/S 752 mmHg 80%
    04:00 +10°C° 0 mm 2 m/S 752 mmHg 80%
    05:00 +10°C° 0 mm 2 m/S 752 mmHg 80%
    06:00 +12°C° 0 mm 3 m/S 752 mmHg 75%
    07:00 +14°C° 0 mm 3 m/S 752 mmHg 70%
    08:00 +15°C° 0 mm 4 m/S 752 mmHg 65%
    09:00 +18°C° 0 mm 4 m/S 752 mmHg 61%
    10:00 +20°C° 0 mm 4 m/S 752 mmHg 57%
    11:00 +22°C° 0 mm 5 m/S 751 mmHg 53%
    12:00 +22°C° 0 mm 5 m/S 751 mmHg 52%
    13:00 +23°C° 0 mm 5 m/S 751 mmHg 51%
    14:00 +25°C° 0 mm 5 m/S 751 mmHg 50%
    15:00 +25°C° 0 mm 4 m/S 750 mmHg 53%
    16:00 +25°C° 0 mm 4 m/S 750 mmHg 55%
    17:00 +24°C° 0 mm 3 m/S 750 mmHg 58%
    18:00 +22°C° 0 mm 3 m/S 750 mmHg 65%
    19:00 +20°C° 0 mm 3 m/S 750 mmHg 72%
    20:00 +18°C° 0 mm 2 m/S 750 mmHg 79%
    21:00 +17°C° 0 mm 2 m/S 750 mmHg 82%
    22:00 +17°C° 0 mm 2 m/S 750 mmHg 84%
    23:00 +16°C° 0 mm 2 m/S 750 mmHg 86%
    Mehr zeigen